Regional Weather Roundup
Issued by NWS

Home | Current Version | Previous Version | Text Only | Print | Product List | Glossary On
Versions: 1 2 3 4 5 6 7 8 9 10 11 12 13 14 15 16 17 18 19 20 21 22 23 24 25 26 27 28 29 30 31 32 33 34 35 36 37 38 39 40 41 42 43 44 45 46 47 48 49 50
000
ASUS44 KFWD 030315
RWRTX
NORTH TEXAS HOURLY WEATHER ROUNDUP
NATIONAL WEATHER SERVICE FORT WORTH TX
1000 PM CDT WED SEP 02 2015

NOTE: "FAIR" INDICATES FEW OR NO CLOUDS BELOW 12,000 FEET WITH NO
SIGNIFICANT WEATHER AND/OR OBSTRUCTIONS TO VISIBILITY.

TXZ118-119-030400-
DALLAS/FORT WORTH METROPLEX

CITY           SKY/WX    TMP DP  RH WIND       PRES   REMARKS
DFW AIRPORT    PTCLDY    86  64  47 SE8       29.96R
DALLAS LOVE    CLEAR     87  65  47 SE13      29.96R
FTW MEACHAM    CLEAR     86  64  47 SE8       29.96R
DAL-EXECUTIVE  CLEAR     84  64  50 SE6       29.97R
FTW-ALLIANCE   PTCLDY    82  63  52 SE6       29.96R
FTW-NAS-JRB    CLEAR     86  64  47 SE7       29.97R
FTW-SPINKS     CLEAR     80  65  59 SE3       29.98R
ARLINGTON      CLEAR     85  64  49 SE8       29.97R
GRAND PRAIRIE  CLEAR     84  66  53 E6        29.98R
MESQUITE       CLEAR     82  63  52 SE3       29.97R
LANCASTER      CLEAR     83  62  49 CALM      29.98R
$$

TXZ091>094-102>105-117-120-121-131>134-030400-
NORTH CENTRAL TEXAS

CITY           SKY/WX    TMP DP  RH WIND       PRES   REMARKS
SHRMAN/DENISON CLEAR     83  66  55 SE8       29.99R
GAINESVILLE    CLEAR     79  63  58 SE5       29.99R
BOWIE          CLEAR     77  63  61 CALM      29.98R
BRIDGEPORT     CLEAR     81  64  57 S6        29.98S
DECATUR        CLEAR     82  60  46 SE7       29.98R
DENTON         CLEAR     82  64  54 SE6       29.96R
MCKINNEY       CLEAR     81  66  60 SE6       29.98R
GREENVILLE     CLEAR     77  64  65 CALM      29.98R
ROCKWALL       CLEAR     82  65  57 SE5       29.97R
TERRELL        CLEAR     81  66  60 E5        29.97R
WAXAHACHIE     CLEAR     82  65  58 E3        29.98S
CLEBURNE         N/A     82  66  57 E8        29.99R
GRANBURY       CLEAR     83  65  54 E6        29.98R
$$

TXZ083>090-098>101-113>116-127>130-139>142-154-155-030400-
WESTERN NORTH TEXAS

CITY           SKY/WX    TMP DP  RH WIND       PRES   REMARKS
WICHITA FALLS  CLEAR     81  61  50 SE13      29.94R
WF-KICKAPOO    CLEAR     84  62  47 SE9       29.96R
VERNON         CLEAR     86  50  28 SE13      29.95R
ABILENE        CLEAR     82  59  45 SE13      29.99R
ABILENE-DYESS  CLEAR     83  59  44 SE13      29.97R
BRECKENRIDGE   CLEAR     83  59  44 SE8       29.96R
GRAHAM         CLEAR     83  63  50 SE8       29.96R
MINERAL WELLS  CLEAR     78  63  59 E3        29.96R
STEPHENVILLE   CLEAR     79  62  55 SE7       30.01R
COMANCHE       CLEAR     78  62  57 SE5       29.98S
BROWNWOOD      CLEAR     77  61  57 SE6       29.99R
COLEMAN        CLEAR     83  61  47 SE9       29.99R
BRADY          CLEAR     82  61  47 E5        29.99R
$$

TXZ143>147-156>162-174-175-030400-
CENTRAL TEXAS

CITY           SKY/WX    TMP DP  RH WIND       PRES   REMARKS
WACO           PTCLDY    84  66  54 S8        29.96R
WACO-TSTC        N/A     82  64  54 S5        29.96R
WACO-MCGREGOR  CLEAR     81  66  60 SE7       29.97R
HILLSBORO      CLEAR     81  63  54 E7        29.97S
CORSICANA      CLEAR     80  68  66 E6        29.98R
MEXIA          PTCLDY    80  64  58 SE15      29.96R
HEARNE         CLEAR     79  68  70 CALM      29.97S
CAMERON        CLEAR     80  69  69 SE6       29.96S
TEMPLE         CLEAR     81  64  57 SE10      29.97R
KILLEEN        CLEAR     81  66  60 SE13      29.97R
KILLEEN-SKYLRK CLEAR     82  64  54 SE8       29.97R
FORT HOOD      CLEAR     82  67  60 SE8       29.96R
GATESVILLE     CLEAR     82  64  54 CALM      29.99S
HAMILTON       CLEAR     82  62  50 SE8       30.00R
$$

TXZ095>097-106>112-122>126-135>138-148>153-164>167-030400-
EAST TEXAS

CITY           SKY/WX    TMP DP  RH WIND       PRES   REMARKS
PARIS          CLEAR     79  61  53 SE6       29.98S
SULPHUR SPRNGS CLEAR     82  65  56 SE5       30.00R
MOUNT PLEASANT CLEAR     79  66  65 CALM      29.99S
GILMER         PTCLDY    76  70  82 CALM      29.98S
MINEOLA        CLEAR     75  70  83 CALM      29.98S
TYLER          CLEAR     82  68  62 CALM      29.97S
LONGVIEW       CLEAR     79  70  74 CALM      29.97R
MARSHALL       CLEAR     78  74  87 CALM      29.99S
ATHENS         CLEAR     73  72  94 CALM      29.96S
PALESTINE      CLEAR     75  68  78 CALM      29.97S
JACKSONVILLE   PTCLDY    82  65  56 S10G16    30.01R
HENDERSON      CLEAR     75  66  74 CALM      29.99R
CENTER         FAIR      80  68  68 CALM      29.98R
NACOGDOCHES    CLEAR     79  66  65 S5        29.98S
LUFKIN         CLEAR     76  67  73 E3        29.98R
$$

SUPPLEMENTAL OBSERVATIONS (CENTRAL)

CITY           SKY/WX    TMP DP  RH WIND       PRES   REMARKS
LAKE TEXOMA      N/A     82  61  47 S6          N/A
PAT MAYSE LAKE   N/A     82  64  54 SE7         N/A
GREENVILLE       N/A     79  64  61 SE2         N/A
CEDAR HILL       N/A     81  64  57 SE2         N/A
LAKE LIMESTONE   N/A     81  66  61 S7          N/A
MCGREGOR         N/A     81  64  57 S8          N/A
TEMPLE           N/A     79  64  61 SE3         N/A
$$

SUPPLEMENTAL OBSERVATIONS (WEST)

CITY           SKY/WX    TMP DP  RH WIND       PRES   REMARKS
MILLERS CREEK    N/A     82  59  44 SE9         N/A
POSSUM KINGDOM   N/A     82  59  44 SE9         N/A
GRANBURY         N/A     82  63  51 SE7         N/A
COMANCHE         N/A     79  59  50 SE7         N/A
HAMBY            N/A     81  57  44 SE8         N/A
IVIE RESERVOIR   N/A     82  57  42 E9          N/A
COLORADO BEND    N/A    N/A N/A N/A S5          N/A
$$

SUPPLEMENTAL OBSERVATIONS (EAST)

CITY           SKY/WX    TMP DP  RH WIND       PRES   REMARKS
CLARKSVILLE      N/A     81  66  61 S3          N/A
TEXARKANA        N/A     73  70  88 CALM        N/A
LINDEN           N/A     79  68  69 E2          N/A
GILMER           N/A     75  70  83 CALM        N/A
HENDERSON        N/A     79  63  57 SE1         N/A
LUFKIN           N/A     77  68  73 MISG        N/A
N SABINE NF      N/A     77  66  69 MISG        N/A
S SABINE NF      N/A     73  68  83 CALM        N/A
$$

SUPPLEMENTAL OBSERVATIONS ARE A COLLECTION OF AUTOMATED INSTRUMENTS
THAT ARE MAINTAINED BY A VARIETY OF FEDERAL AND STATE AGENCIES.
CERTAIN ELEMENTS...SUCH AS HUMIDITY VALUES AND SUSTAINED WIND
SPEEDS...MAY BE APPROXIMATED.



USA.gov is the U.S. government's official web portal to all federal, state and local government web resources and services.